This is the latest recevied weather packets stored in our database for station/object KSRR. If no packets are shown the sender has not sent any weather packets the latest 10 day(s).
| Time | Temp. | Humidity | Pressure | Rain* | Wind** | Luminosity | Snow |
|---|---|---|---|---|---|---|---|
| 1777757622 | - | - | 1017.6 hPa | - | - | - | - |
| 1777757022 | - | - | 1017.6 hPa | - | - | - | - |
| 1777756425 | 6.67° C | 93% | 1026.4 hPa | - | - | - | - |
| 1777755823 | 6.67° C | 93% | 1026.4 hPa | - | - | - | - |
| 1777755222 | 6.67° C | 87% | 1026.1 hPa | - | - | - | - |
| 1777754622 | 6.67° C | 87% | 1026.1 hPa | - | - | - | - |
| 1777754024 | 7.78° C | 75% | 1026.1 hPa | - | - | - | - |
| 1777753422 | 7.78° C | 75% | 1026.1 hPa | - | - | - | - |
| 1777752825 | 7.78° C | 75% | 1018.3 hPa | - | - | - | - |
| 1777752222 | 7.78° C | 75% | 1018.3 hPa | - | - | - | - |
| 1777751623 | 8.89° C | 70% | 1025.7 hPa | - | - | - | - |
| 1777751022 | 10° C | 57% | 1025.7 hPa | - | - | - | - |
| 1777750421 | 10° C | 57% | 1025.7 hPa | - | - | - | - |
| 1777749826 | 10° C | 57% | 1025.7 hPa | - | - | - | - |
| 1777749222 | 10° C | 57% | 1025.7 hPa | - | - | - | - |
| 1777748623 | 10° C | 57% | 1025.7 hPa | - | - | - | - |
| 1777748023 | 10° C | 57% | 1026.1 hPa | - | - | - | - |
| 1777747420 | 10° C | 57% | 1026.1 hPa | - | - | - | - |
| 1777746823 | 10° C | 57% | 1026.4 hPa | - | - | - | - |
| 1777746222 | 10° C | 57% | 1026.4 hPa | - | - | - | - |
| 1777745620 | 8.89° C | 61% | 1026.4 hPa | - | - | - | - |
| 1777745023 | 8.89° C | 61% | 1026.4 hPa | - | - | - | - |
| 1777744423 | 8.89° C | 61% | 1026.8 hPa | - | - | - | - |
| 1777743820 | 8.89° C | 61% | 1026.8 hPa | - | - | - | - |
| 1777743222 | 8.89° C | 61% | 1026.8 hPa | - | - | - | - |
* Rain since midnight (hover to see other rain measurements)
** Current wind speed in m/s (hover to see current wind gust speed)